Location: Unspecified
(48.5670°N, 0.0000°E)
Time: 22:42:34
(UTC+00:00)

Explorer 7 - All Passes

Search period start: 22 October 2019 00:00
Search period end: 01 November 2019 00:00
Orbit: 485 x 680 km, 50.3° (Epoch: 21 October)

Date Brightness Start Highest point End Pass type
(mag) Time Alt. Az. Time Alt. Az. Time Alt. Az.
22 Oct - 10:10:56 10° SSW 10:13:55 23° SE 10:16:55 10° E daylight
22 Oct - 11:50:16 10° WSW 11:54:01 81° SSE 11:57:49 10° ENE daylight
22 Oct - 13:30:52 10° W 13:34:37 66° N 13:38:29 10° E daylight
22 Oct - 15:11:22 10° WNW 15:15:11 73° SSW 15:19:10 10° ESE daylight
22 Oct - 16:52:18 10° W 16:55:16 21° SW 16:58:20 10° S daylight
23 Oct - 10:15:20 10° SSW 10:18:45 33° SSE 10:22:10 10° E daylight
23 Oct - 11:55:16 10° WSW 11:59:01 82° NNW 12:02:50 10° ENE daylight
23 Oct - 13:35:54 10° WNW 13:39:40 70° N 13:43:33 10° E daylight
23 Oct - 15:16:24 10° WNW 15:20:08 53° SSW 15:24:02 10° SE daylight
23 Oct - 16:58:02 10° WSW 17:00:02 14° SW 17:02:05 10° SSW daylight
24 Oct - 08:42:42 10° SSE 08:43:51 11° SE 08:45:00 10° ESE daylight
24 Oct - 10:20:00 10° SW 10:23:38 48° SSE 10:27:16 10° ENE daylight
24 Oct - 12:00:19 10° W 12:04:03 71° N 12:07:51 10° ENE daylight
24 Oct - 13:40:56 10° WNW 13:44:42 79° NNE 13:48:36 10° E daylight
24 Oct - 15:21:29 10° W 15:25:03 37° SSW 15:28:44 10° SE daylight
25 Oct - 08:46:00 10° S 08:48:36 17° SE 08:51:09 10° E daylight
25 Oct - 10:24:49 10° WSW 10:28:35 67° SSE 10:32:18 10° ENE daylight
25 Oct - 12:05:22 10° W 12:09:06 66° N 12:12:54 10° E daylight
25 Oct - 13:45:56 10° WNW 13:49:43 85° SSW 13:53:37 10° ESE daylight
25 Oct - 15:26:41 10° W 15:29:54 26° SW 15:33:13 10° SSE daylight
26 Oct - 08:50:10 10° SSW 08:53:23 26° SE 08:56:34 10° E daylight
26 Oct - 10:29:46 10° WSW 10:33:34 87° SSE 10:37:19 10° ENE daylight
26 Oct - 12:10:26 10° W 12:14:10 66° N 12:17:57 10° E daylight
26 Oct - 13:50:57 10° WNW 13:54:41 65° SSW 13:58:33 10° ESE daylight
26 Oct - 15:32:06 10° W 15:34:42 17° SW 15:37:21 10° S daylight
27 Oct - 08:54:40 10° SW 08:58:14 38° SSE 09:01:45 10° E daylight
27 Oct - 10:34:47 10° W 10:38:34 77° N 10:42:20 10° ENE daylight
27 Oct - 12:15:28 10° WNW 12:19:13 72° N 12:23:01 10° E daylight
27 Oct - 13:55:59 10° WNW 13:59:38 47° SSW 14:03:22 10° SE daylight
27 Oct - 15:38:16 10° WSW 15:39:26 11° SW 15:40:36 10° SSW daylight
28 Oct - 07:21:20 10° SSE 07:23:16 13° SE 07:25:10 10° ESE daylight
28 Oct - 08:59:23 10° SW 09:03:09 54° SSE 09:06:49 10° ENE daylight
28 Oct - 10:39:50 10° W 10:43:36 69° N 10:47:21 10° ENE daylight
28 Oct - 12:20:29 10° WNW 12:24:15 83° NNE 12:28:04 10° ESE daylight
28 Oct - 14:01:06 10° W 14:04:30 32° SSW 14:08:00 10° SSE daylight
29 Oct - 07:25:06 10° S 07:28:02 20° SE 07:30:54 10° E daylight
29 Oct - 09:04:16 10° WSW 09:08:05 74° SSE 09:11:51 10° ENE daylight
29 Oct - 10:44:54 10° W 10:48:39 65° N 10:52:24 10° E daylight
29 Oct - 12:25:29 10° WNW 12:29:14 79° SSW 12:33:03 10° ESE daylight
29 Oct - 14:06:21 10° W 14:09:20 22° SW 14:12:23 10° SSE daylight
30 Oct - 07:29:24 10° SSW 07:32:50 30° SE 07:36:12 10° E daylight
30 Oct - 09:09:14 10° WSW 09:13:05 87° NNW 09:16:51 10° ENE daylight
30 Oct - 10:49:57 10° W 10:53:42 67° N 10:57:28 10° E daylight
30 Oct - 12:30:30 10° WNW 12:34:12 59° SSW 12:37:57 10° SE daylight
30 Oct - 14:11:56 10° WSW 14:14:06 15° SW 14:16:18 10° S daylight
31 Oct - 05:57:50 10° SE 05:57:56 10° SE 05:58:03 10° SE visible
31 Oct - 07:33:59 10° SW 07:37:43 43° SSE 07:41:20 10° ENE daylight
31 Oct - 09:14:16 10° W 09:18:06 74° N 09:21:52 10° ENE daylight
31 Oct - 10:54:58 10° WNW 10:58:45 75° N 11:02:31 10° E daylight
31 Oct - 12:35:33 10° W 12:39:06 41° SSW 12:42:42 10° SE daylight
